Regional Weather Roundup
Issued by NWS

Home | Current Version | Previous Version | Text Only | Print | Product List | Glossary Off
Versions: 1 2 3 4 5 6 7 8 9 10 11 12 13 14 15 16 17 18 19 20 21 22 23 24 25 26 27 28 29 30 31 32 33 34 35 36 37 38 39 40 41 42 43 44 45 46 47 48 49 50

000
ASUS43 KIND 032359
RWRIN

WEATHER ROUNDUP FOR INDIANA
NATIONAL WEATHER SERVICE INDIANAPOLIS IN
700 PM EST TUE MAR 03 2015

NOTE: "FAIR" INDICATES FEW OR NO CLOUDS BELOW 12,000 FEET WITH NO
SIGNIFICANT WEATHER AND/OR OBSTRUCTIONS TO VISIBILITY.

* - STATION DOES NOT REPORT WEATHER SUCH AS PRECIPITATION OR FOG.

+ - STATION NOT QUALITY CONTROLLED BY THE NATIONAL WEATHER SERVICE.
    USE DATA WITH CAUTION...ESPECIALLY DEWPOINT AND RELATIVE
    HUMIDITY OBSERVATIONS.

INZ001>003-010>013-019-020-040100-
NORTHWEST INDIANA

CITY           SKY/WX    TMP DP  RH WIND       PRES   REMARKS
GARY /AIRPORT/ CLOUDY    37  28  70 W12G23    29.75R
MONTICELLO +   CLOUDY    35  34  96 W14G20    29.78R WCI  25
6HR MIN TEMP:  32; 6HR MAX TEMP:  37;

VALPARAISO     NOT AVBL

$$

LMZ046-743>745-040100-
SOUTHERN LAKE MICHIGAN

STATION/POSITION TIME  TEMP WIND        PRES
                       AIR  DIR/SP/G
                 (UTC) (F)  (DEG/KT/KT) (MB)
MICHIGAN CITY    2300   34  230/ 14/ 17   N/A

$$

INZ004-005-014>016-021>024-040100-
NORTH CENTRAL INDIANA

CITY           SKY/WX    TMP DP  RH WIND       PRES   REMARKS
ELKHART        CLOUDY    36  30  80 W14G21    29.69S
GOSHEN         CLOUDY    35  31  85 W17       29.69R WCI  25
6HR MIN TEMP:  32; 6HR MAX TEMP:  37; 6HR PCP: TRACE;

SOUTH BEND     CLOUDY    35  50 100 W15       29.71S WCI  25
6HR MIN TEMP:  33; 6HR MAX TEMP:  36; 6HR PCP: TRACE;


$$

INZ006>009-017-018-025>027-040100-
NORTHEAST INDIANA

CITY           SKY/WX    TMP DP  RH WIND       PRES   REMARKS
ANGOLA *+      CLOUDY    36  28  75 W16       29.67R
FORT WAYNE     CLOUDY    36  33  89 W23G29    29.72R
6HR MIN TEMP:  31; 6HR MAX TEMP:  38; 6HR PCP:  0.02;


$$

INZ028-029-035-036-043>045-051>053-040100-
WEST CENTRAL INDIANA

CITY           SKY/WX    TMP DP  RH WIND       PRES   REMARKS
CRAWFORDSVL +  CLOUDY    36  32  87 W13G21    29.81R
6HR MIN TEMP:  35; 6HR MAX TEMP:  38;

GREENCASTLE +  LGT RAIN  39  36  87 W6        29.81R
LAFAYETTE      CLOUDY    36  34  92 W13       29.79R
6HR MIN TEMP:  35; 6HR MAX TEMP:  39; 6HR PCP:  0.01;

TERRE HAUTE    CLOUDY    40  38  93 W7        29.83S
6HR MIN TEMP:  37; 6HR MAX TEMP:  41; 6HR PCP:  0.06;


$$

INZ030>032-037>040-046>048-054>057-064-065-040100-
CENTRAL INDIANA

CITY           SKY/WX    TMP DP  RH WIND       PRES   REMARKS
COLUMBUS       CLOUDY    41  39  93 W12       29.82R
FRANKFORT +    CLOUDY    36  36 100 SW13      29.81R FOG
GREENWOOD *+   CLOUDY    39  36  87 W12G20    29.81R
INDIANAPOLIS   LGT RAIN  39  36  89 W15       29.79R
6HR MIN TEMP:  35; 6HR MAX TEMP:  40; 6HR PCP:  0.09;

-EAGLE CREEK   LGT RAIN  39  37  92 W10G18    29.79R
6HR MIN TEMP:  33; 6HR MAX TEMP:  41; 6HR PCP:  0.09;

KOKOMO *+      CLOUDY    36  34  93 W18       29.78R
6HR MIN TEMP:  34; 6HR MAX TEMP:  37; 6HR PCP:  0.19;

MT COMFORT *+  CLOUDY    39 N/A N/A W16G23    29.81R
SHELBYVILLE    LGT RAIN  41  39  93 W8        29.81R FOG
6HR MIN TEMP:  36; 6HR MAX TEMP:  46; 6HR PCP:  0.09;


$$

INZ033-034-041-042-049-050-058-059-040100-
EAST CENTRAL INDIANA

CITY           SKY/WX    TMP DP  RH WIND       PRES   REMARKS
MUNCIE         LGT RAIN  38  36  92 W17G24    29.78R
6HR MIN TEMP:  34; 6HR MAX TEMP:  40; 6HR PCP:  0.04;


$$

INZ060-061-067>069-081>083-085>088-040100-
SOUTHWEST INDIANA

CITY           SKY/WX    TMP DP  RH WIND       PRES   REMARKS
EVANSVILLE     CLOUDY    50  47  89 W13       29.87R FOG
6HR MIN TEMP:  46; 6HR MAX TEMP:  52; 6HR PCP:  0.68;

HUNTINGBURG *+ CLOUDY    48  46  93 W12       29.86R
6HR MIN TEMP:  45; 6HR MAX TEMP:  50; 6HR PCP:  0.75;


$$

INZ062-063-066-070>080-084-089>092-040100-
SOUTH CENTRAL AND SOUTHEAST INDIANA

CITY           SKY/WX    TMP DP  RH WIND       PRES   REMARKS
BLOOMINGTON    LGT RAIN  42  42 100 W9        29.83R FOG
6HR MIN TEMP:  42; 6HR MAX TEMP:  45; 6HR PCP:  0.14;

SEYMOUR +      LGT RAIN  45  45 100 W15       29.82R

$$



USA.gov is the U.S. government's official web portal to all federal, state and local government web resources and services.